Tracking 28125 objects as of 4-Oct-2023
HD Live streaming from Space Station
objects crossing your sky now

THORAD AGENA D DEB

Track THORAD AGENA D DEB now!
10-day predictions


NORAD ID: 5690
Int'l Code: 1970-025LV
Perigee: 1,038.5 km
Apogee: 1,111.7 km
Inclination: 100.1 °
Period: 106.6 minutes
Semi major axis: 7446 km
RCS: 0.0072 m2 (small)
Launch date: April 8, 1970
Source: United States (US)
Launch site: AIR FORCE WESTERN TEST RANGE (AFWTR)

Note: This is SATELLITE DEBRIS
Your satellite tracking list
Your tracking list is empty




NASA's NSSDC Master Catalog

Two Line Element Set (TLE):
1 05690U 70025LV  23276.73468647  .00000237  00000-0  43508-3 0  9994
2 05690 100.1392 252.5231 0049127 335.0387 201.3139 13.51162723633002
Source of the keplerian elements: AFSPC